Home   Weather   Saint John   Past weeks

Flag for Canada Past Weather in Saint John, New Brunswick, Canada — Yesterday and Last 2 Weeks

Now
16 °F

Clear.


Feels Like: 10 °F
Forecast: 17 / 29 °F
Wind: 3 mph from Northwest

Location: Saint John

Current Time: Dec 5, 2016 at 4:45:23 am

Latest Report: Dec 5, 2016 at 4:00 am


Visibility: 15 mi

Pressure: 30.10 "Hg

Humidity: 93%

Dew Point: 14 °F

Location of Saint JohnLocation

Past Weather in Saint John — Graph

°F

Saint John Temperature Yesterday

Maximum temperature yesterday: 30 °F (at 12:00 am)
Minimum temperature yesterday: 21 °F (at 10:00 pm)
Average temperature yesterday: 27 °F

High & Low Weather Summary for the Past Weeks

 TemperatureHumidityPressure
High52 °F (Nov 20, 4:00 pm)100% (Nov 20, 3:00 am)30.40 "Hg (Nov 20, 3:00 am)
Low18 °F (Dec 5, 1:00 am)53% (Nov 28, 1:00 pm)29.28 "Hg (Dec 1, 6:00 pm)
Average35 °F88%29.85 "Hg
* Reported Nov 20 3:00 am — Dec 5 3:00 am, Saint John, Weather by CustomWeather, © 2016

Note: Actual official high and low records may vary slightly from our data, if they occured in-between our weather recording intervals... More about our weather records

Advertising

Saint John Weather History for the Previous 24 Hours

Scroll right to see more
 ConditionsComfort  
Time TempWeatherWind HumidityBarometerVisibility
3:00 am
Mon, Dec 5
18 °FClear.2 mph86%30.10 "Hg15 mi
2:00 am18 °FPassing clouds.5 mph93%30.11 "Hg15 mi
1:00 am18 °FPassing clouds.No wind93%30.11 "Hg15 mi
12:00 am19 °FPassing clouds.8 mph86%30.11 "Hg15 mi
11:00 pm
Sun, Dec 4
21 °FPassing clouds.8 mph86%30.11 "Hg15 mi
10:00 pm21 °FPassing clouds.6 mph86%30.11 "Hg15 mi
9:00 pm23 °FPassing clouds.10 mph80%30.11 "Hg15 mi
8:00 pm23 °FPassing clouds.12 mph80%30.11 "Hg15 mi
7:00 pm27 °FPassing clouds.15 mph69%30.09 "Hg15 mi
6:00 pm27 °FPassing clouds.10 mph69%30.08 "Hg15 mi
5:00 pm27 °FPassing clouds.17 mph69%30.06 "Hg15 mi
4:00 pm27 °FPartly sunny.14 mph69%30.05 "Hg15 mi
3:00 pm28 °FPartly sunny.16 mph69%30.03 "Hg15 mi
2:00 pm28 °FOvercast.9 mph69%30.02 "Hg15 mi
1:00 pm28 °FOvercast.16 mph64%30.01 "Hg15 mi
12:00 pm28 °FOvercast.17 mph69%30.01 "Hg15 mi
11:00 am28 °FOvercast.15 mph74%30.01 "Hg15 mi
10:00 am28 °FOvercast.13 mph74%30.01 "Hg15 mi
9:00 am28 °FPartly sunny.15 mph74%29.99 "Hg15 mi
8:00 am28 °FBroken clouds.12 mph80%29.97 "Hg15 mi
7:00 am28 °FPassing clouds.20 mph80%29.95 "Hg15 mi
6:00 am28 °FLight snow. Overcast.13 mph86%29.94 "Hg15 mi
5:00 am28 °FLight snow. Mostly cloudy.14 mph93%29.92 "Hg15 mi
4:00 am30 °FLight snow. Mostly cloudy.12 mph86%29.91 "Hg15 mi
Weather by CustomWeather, © 2016

See weather overviewHow to use our weather pages